Terminal Aerodrome Forecast
Issued by NWS Chicago, IL

Home | Current Version | Previous Version | Graphics & Text | Print | Product List | Glossary On
Versions: 1 2 3 4 5 6 7 8 9 10 11 12 13 14 15 16 17 18 19 20 21 22 23 24 25 26 27 28 29 30 31 32 33 34 35
000
FTUS43 KLOT 020500
TAFRFD
TAF
KRFD 020520Z 0206/0306 VRB03KT P6SM SCT040 BKN150
      TEMPO 0206/0208 -SHRA OVC045
     FM021600 26007KT P6SM FEW050 FEW250
     FM030100 VRB03KT P6SM SKC=

USA.gov is the U.S. government's official web portal to all federal, state and local government web resources and services.